User: anonymous   Login
Location: DaVinci Observatory
(43.1080°N, 78.6453°W)
Time: 06:00:38
(UTC-04:00)
Language:

ISS - Orbit

View from above orbital plane
View from above orbital plane
View from above satellite
View from above satellite

Ground track
Ground track

The orbit data is extracted from the following two-line orbital elements,

1 25544U 98067A   19197.54796818  .00016717  00000-0  10270-3 0  9013
2 25544  51.6390 215.6092 0007012 146.2241 213.9357 15.50983447 19805
Epoch (UTC): 16 July 2019 13:09:04
Eccentricity: 0.0007012
inclination: 51.6390°
perigee height: 409 km
apogee height: 418 km
right ascension of ascending node: 215.6092°
argument of perigee: 146.2241°
revolutions per day: 15.50983447
mean anomaly at epoch: 213.9357°
orbit number at epoch: 1980

The dashed part of the orbit path shows where the satellite is in the earth's shadow,  

DLR